Welcome to the New NWS' Forecast!
Most changes are behind the scenes, but click here for differences you might notice.
Latest weather observations around

Bremerton, Bremerton National Airport (KPWT)

Using English Units (Switch to International System of Units)
Date/ Time (PDT) Wind (mph) Vis. (mi) Weather Sky Cond. Temp (°F) Rel. Humidity Wind Chill (°F) Heat Index (°F) Pressure Precip. (in)
Air Dwpt 6 hour Altimeter (inHg) Sea level (inHg) 1 hr 3 hr 6 hr
Max Min
Aug 15 00:56 Calm 5 Haze CLR 62 52     70%     29.87        
Aug 14 23:56 ENE 3 5 Haze CLR 66 53     63%     29.86        
Aug 14 22:56 NNE 3 5 Haze CLR 67 53     61%     29.86 29.89      
Aug 14 21:56 NE 7 5 Haze CLR 70 53     55%     29.86        
Aug 14 20:56 NE 7 4 Haze CLR 71 56     59%   71 29.85        
Aug 14 19:56 ENE 5 4 Haze CLR 76 57     52%   76 29.84        
Aug 14 18:56 ENE 8 4 Haze CLR 81 58     45%   81 29.84        
Aug 14 17:56 ENE 9 4 Haze CLR 83 58     43%   83 29.85        
Aug 14 16:56 ENE 9 4 Haze CLR 84 59     43%   84 29.86        
Aug 14 15:56 ENE 8 4 Haze CLR 84 58     41%   83 29.88 29.91      
Aug 14 14:56 ENE 9 4 Haze CLR 83 58     43%   83 29.89 29.93      
Aug 14 13:56 ENE 9 4 Haze CLR 82 58     44%   82 29.91 29.95      
Aug 14 12:56 ENE 8 4 Haze CLR 80 59     49%   81 29.93 29.96      
Aug 14 11:56 NE 11 4 Haze CLR 77 58     52%   77 29.94        
Aug 14 10:56 E 8 4 Haze CLR 73 58     59%   73 29.96 29.99      
Aug 14 09:56 NE 8 4 Haze CLR 70 57     63%     29.96        
Aug 14 08:56 ENE 8 4 Haze CLR 66 57     73%     29.97        
Aug 14 07:56 Calm 4 Fog/Mist CLR 59 57     93%     29.97        
Aug 14 06:56 Calm 4 Fog/Mist CLR 53 52     96%              
Aug 14 05:56 Calm 4 Fog/Mist CLR 53 52     96%     29.96        
Aug 14 03:56 Calm 6 Fog/Mist CLR 55 53     93%     29.97        
Aug 14 02:56 Calm 5 Fog/Mist CLR 52 51     97%     29.97 30.01      
Aug 14 01:56 Calm 6 Fog/Mist CLR 52 50     93%     29.98        
Aug 14 00:56 Calm 5 Fog/Mist CLR 54 53     97%     29.98        
Aug 13 23:56 SE 3 6 Fog/Mist CLR 57 53     87%     29.98        
Aug 13 22:56 Calm 6 Haze CLR 63 56     78%     29.98        
Aug 13 21:56 NNE 8 7 Clear CLR 66 57     73%     29.98        
Aug 13 20:56 NNE 10 5 Haze CLR 66 57     73%     29.98        
Aug 13 19:56 NE 6 6 Haze CLR 69 57     65%     29.98        
Aug 13 18:56 NE 10 6 Haze CLR 72 58     61%   72 29.97 30.01      
Aug 13 17:56 NE 7 7 Clear CLR 75 58     55%   75 29.99 30.03      
Aug 13 16:56 NE 11 7 Clear CLR 76 58     54%   76 30        
Aug 13 15:56 NNE 14 7 Clear CLR 77 58     52%   77 30.02 30.06      
Aug 13 14:56 ENE 11 8 Clear CLR 76 59     56%   76 30.04 30.08      
Aug 13 13:56 NE 10 7 Clear CLR 76 59     56%   76 30.05 30.09      
Aug 13 11:56 ENE 10 10 Clear CLR 72 59     64%   72 30.08 30.12      
Aug 13 10:56 NE 9 10 Clear CLR 70 58     66%     30.09 30.13      
Aug 13 09:56 NE 9 10 Clear CLR 66 57     73%     30.1 30.14      
Aug 13 08:56 NE 10 10 Clear CLR 63 55     75%     30.11 30.15      
Aug 13 07:56 NE 8 10 Clear CLR 59 54     83%     30.11 30.15      
Aug 13 06:56 ENE 7 10 Clear CLR 56 52     87%     30.1 30.15      
Aug 13 05:56 ENE 6 10 Clear CLR 55 52     89%     30.1 30.14      
Aug 13 03:56 ENE 6 10 Clear CLR 55 52     89%     30.11        
Aug 12 20:56 NE 7 10 Clear CLR 61 53     75%     30.13        
Aug 12 18:56 NNE 9 10 Clear CLR 67 56     68%     30.12        
Aug 12 16:56 NE 9 10 Clear CLR 70 55     59%     30.13        
Aug 12 14:56 5 10 Mostly Clear FEW031 72 56     57%   72 30.15 30.19      
Aug 12 13:56 NNW 8 10 Cloudy FEW027 OVC041 70 56     61%     30.18        
Aug 12 13:48 3 10 Cloudy SCT027 OVC041 68 55     64%     30.18        
Aug 12 07:16 SSW 5 10 Cloudy SCT008 BKN013 OVC046 59 57     94%     30.17        
Aug 12 06:56 SSW 3 10 Cloudy OVC008 59 57     93%     30.18        
Aug 12 05:56 SSW 6 9 Cloudy SCT005 BKN011 OVC036 58 57     97%     30.16 30.2      
Aug 12 02:56 3 10 Cloudy OVC009 58 57     97%     30.13 30.17      
Aug 12 01:56 S 6 10 Cloudy BKN007 OVC025 57 56     96%     30.11 30.16      
Aug 12 00:56 Calm 10 Clear CLR 56 54     93%     30.12        
Aug 11 23:56 SSW 5 10 Cloudy OVC026 58 56     93%     30.11        
Aug 11 23:38 Calm 10 Mostly Cloudy BKN026 57 55     94%     30.1        
Aug 11 22:56 SSW 7 10 Clear CLR 59 57     93%     30.1 30.14     0
May 15 09:04 SW 8 10 Cloudy OVC007 55 52     88%     29.96        
May 14 08:56 Calm 10 Clear CLR 62 54     75%     29.97 30.01      
May 14 07:56 SSW 6 10 Clear CLR 58 54     87%     29.98        
Notice The following observation data may not be complete
May 13 20:56 Calm 10 Clear CLR   52      %     29.9        
May 13 12:56 NNE 7 10 Clear CLR 75 55     50%   75 29.95        
May 13 02:56 Calm 10 Clear CLR 47 44     90%     29.97 30.01      
May 12 17:56 ENE 9 10 Clear CLR 74 48     40%   73 29.99        
May 12 01:56 Calm 10 Clear CLR 45 45     100%     30.2        
May 12 00:56 Calm 10 Clear CLR 47 46     97%     30.2        
May 11 15:56 Calm 10 Mostly Cloudy BKN033 63 49     60%     30.23        
May 11 12:56 SSE 5 10 Cloudy BKN024 OVC028 57 49     74%     30.27 30.33      
May 11 07:56 Calm 10 Cloudy BKN019 OVC027 49 47     93%     30.27 30.32      
Jun 11 09:56 SSW 3 10 Cloudy OVC005 52 49     89%     30.06        
Jun 10 19:56 NNE 5 10 Clear CLR 62 45     53%     29.9 29.95      
Jun 10 15:56 WSW 3 10 Cloudy SCT046 OVC060 61 46     58%     29.86        
Notice The following observation data may not be complete
Jun 10 08:40   10 Cloudy OVC006          %              
Jun 10 02:15 WSW 7 10 Cloudy OVC004 48 46     93% 45   29.87        
Jun 09 16:56 SSW 8 10 Light Rain FEW026 58 46     65%     29.83 29.89 0   0
Jun 09 04:36 Calm 10 Cloudy SCT021 BKN028 OVC048 48 46     93%     29.93        
Jun 08 09:48 SSW 9 10 Light Rain BKN006 OVC030 55 54     94%     29.68   0    
Jun 08 04:56 SW 3 10 Light Rain SCT002 BKN010 OVC043 52 52     100%     29.64   0   0
Jun 07 09:56 Calm 10 Clear   67 49     52%     29.8        
Jun 06 02:56 E 5 10 Clear   54 43     66%     30.03        
Jun 05 16:56 ENE 9 10 Clear   71 39     31%   69 30.07